When you browse on this site, cookies collect data to enhance your experience and personalize the content and advertising you see.
Visit our Privacy Policy to learn more. By continuing to use the site, you agree to this use of cookies and data.
  • In Austria
  • List of Countries
  • For 7 days
  • Water Temperature
  • Weather Map
  • News
  • Weather Widgets
  • user-avatar
    Login

    Hourly Weather Neuquén

    Today, 12 December, Thursday

    Time Temperature Precipitation Wind Pressure Humidity
    00:00 +12°C° 0 mm 9 mps 734 mmHg 32%
    01:00 +11°C° 0 mm 7 mps 734 mmHg 34%
    02:00 +10°C° 0 mm 6 mps 735 mmHg 37%
    03:00 +9°C° 0 mm 5 mps 735 mmHg 40%
    04:00 +10°C° 0 mm 4 mps 735 mmHg 43%
    05:00 +10°C° 0 mm 5 mps 735 mmHg 37%
    06:00 +13°C° 0 mm 6 mps 736 mmHg 32%
    07:00 +15°C° 0 mm 6 mps 736 mmHg 26%
    08:00 +16°C° 0 mm 5 mps 736 mmHg 22%
    09:00 +19°C° 0 mm 5 mps 735 mmHg 19%
    10:00 +20°C° 0 mm 4 mps 735 mmHg 16%
    11:00 +21°C° 0 mm 4 mps 735 mmHg 14%
    12:00 +23°C° 0 mm 4 mps 734 mmHg 12%
    13:00 +25°C° 0 mm 4 mps 733 mmHg 10%
    14:00 +25°C° 0 mm 3 mps 732 mmHg 9%
    15:00 +26°C° 0 mm 3 mps 732 mmHg 9%
    16:00 +26°C° 0 mm 3 mps 731 mmHg 9%
    17:00 +24°C° 0 mm 3 mps 731 mmHg 10%
    18:00 +21°C° 0 mm 2 mps 731 mmHg 11%
    19:00 +20°C° 0 mm 2 mps 731 mmHg 13%
    20:00 +19°C° 0 mm 2 mps 731 mmHg 13%
    21:00 +19°C° 0 mm 2 mps 731 mmHg 13%
    22:00 +18°C° 0 mm 2 mps 731 mmHg 13%
    23:00 +18°C° 0 mm 3 mps 731 mmHg 14%

    Tomorrow, 13 December, Friday

    Time Temperature Precipitation Wind Pressure Humidity
    00:00 +18°C° 0 mm 3 mps 730 mmHg 14%
    01:00 +17°C° 0 mm 4 mps 730 mmHg 15%
    02:00 +18°C° 0 mm 4 mps 729 mmHg 15%
    03:00 +18°C° 0 mm 4 mps 729 mmHg 15%
    04:00 +19°C° 0 mm 4 mps 729 mmHg 15%
    05:00 +20°C° 0 mm 5 mps 729 mmHg 14%
    06:00 +22°C° 0 mm 6 mps 729 mmHg 14%
    07:00 +23°C° 0 mm 7 mps 730 mmHg 13%
    08:00 +24°C° 0 mm 8 mps 730 mmHg 13%
    09:00 +26°C° 0 mm 8 mps 729 mmHg 14%
    10:00 +28°C° 0 mm 8 mps 729 mmHg 14%
    11:00 +29°C° 0 mm 8 mps 729 mmHg 14%
    12:00 +31°C° 0 mm 8 mps 728 mmHg 14%
    13:00 +32°C° 0 mm 8 mps 728 mmHg 15%
    14:00 +32°C° 0 mm 9 mps 728 mmHg 16%
    15:00 +31°C° 0 mm 10 mps 728 mmHg 17%
    16:00 +31°C° 0 mm 11 mps 728 mmHg 19%
    17:00 +28°C° 0 mm 10 mps 728 mmHg 21%
    18:00 +27°C° 0 mm 10 mps 729 mmHg 23%
    19:00 +24°C° 0 mm 9 mps 730 mmHg 26%
    20:00 +23°C° 0 mm 9 mps 730 mmHg 29%
    21:00 +21°C° 0 mm 9 mps 731 mmHg 32%
    22:00 +20°C° 0 mm 8 mps 731 mmHg 35%
    23:00 +18°C° 0 mm 7 mps 731 mmHg 37%

    Day after tomorrow, 14 December, Saturday

    Time Temperature Precipitation Wind Pressure Humidity
    00:00 +17°C° 0 mm 6 mps 731 mmHg 40%
    01:00 +16°C° 0 mm 5 mps 731 mmHg 42%
    02:00 +16°C° 0 mm 5 mps 731 mmHg 46%
    03:00 +15°C° 0 mm 5 mps 731 mmHg 49%
    04:00 +14°C° 0 mm 5 mps 731 mmHg 53%
    05:00 +16°C° 0 mm 5 mps 732 mmHg 46%
    06:00 +19°C° 0 mm 5 mps 732 mmHg 40%
    07:00 +21°C° 0 mm 6 mps 733 mmHg 34%
    08:00 +22°C° 0 mm 6 mps 732 mmHg 28%
    09:00 +24°C° 0 mm 6 mps 732 mmHg 23%
    10:00 +26°C° 0 mm 6 mps 732 mmHg 18%
    11:00 +27°C° 0 mm 6 mps 731 mmHg 17%
    12:00 +29°C° 0 mm 5 mps 731 mmHg 16%
    13:00 +30°C° 0 mm 5 mps 730 mmHg 15%
    14:00 +32°C° 0 mm 6 mps 730 mmHg 13%
    15:00 +32°C° 0 mm 6 mps 729 mmHg 11%
    16:00 +33°C° 0 mm 7 mps 729 mmHg 9%
    17:00 +31°C° 0 mm 8 mps 729 mmHg 12%
    18:00 +28°C° 0 mm 9 mps 730 mmHg 15%
    19:00 +24°C° 0 mm 9 mps 730 mmHg 19%
    20:00 +23°C° 0 mm 10 mps 731 mmHg 23%
    21:00 +22°C° 0 mm 11 mps 731 mmHg 27%
    22:00 +19°C° 0 mm 11 mps 732 mmHg 32%
    23:00 +19°C° 0 mm 11 mps 732 mmHg 34%

    15 December, Sunday

    Time Temperature Precipitation Wind Pressure Humidity
    00:00 +18°C° 0 mm 11 mps 732 mmHg 36%
    01:00 +17°C° 0 mm 11 mps 732 mmHg 39%
    02:00 +16°C° 0 mm 10 mps 732 mmHg 39%
    03:00 +16°C° 0 mm 10 mps 732 mmHg 40%
    04:00 +16°C° 0 mm 9 mps 733 mmHg 40%
    05:00 +17°C° 0 mm 8 mps 733 mmHg 36%
    06:00 +20°C° 0 mm 8 mps 734 mmHg 32%
    07:00 +22°C° 0 mm 7 mps 734 mmHg 28%
    08:00 +23°C° 0 mm 7 mps 734 mmHg 25%
    09:00 +24°C° 0 mm 6 mps 734 mmHg 21%
    10:00 +27°C° 0 mm 6 mps 734 mmHg 18%
    11:00 +28°C° 0 mm 7 mps 733 mmHg 17%
    12:00 +29°C° 0 mm 7 mps 733 mmHg 15%
    13:00 +29°C° 0 mm 8 mps 732 mmHg 13%
    14:00 +29°C° 0 mm 8 mps 731 mmHg 13%
    15:00 +31°C° 0 mm 8 mps 731 mmHg 13%
    16:00 +31°C° 0 mm 9 mps 730 mmHg 12%
    17:00 +28°C° 0 mm 7 mps 730 mmHg 14%
    18:00 +27°C° 0 mm 6 mps 730 mmHg 16%
    19:00 +25°C° 0 mm 5 mps 731 mmHg 17%
    20:00 +24°C° 0 mm 6 mps 731 mmHg 19%
    21:00 +23°C° 0 mm 7 mps 731 mmHg 21%
    22:00 +23°C° 0 mm 8 mps 731 mmHg 23%
    23:00 +22°C° 0 mm 9 mps 731 mmHg 26%

    16 December, Monday

    Time Temperature Precipitation Wind Pressure Humidity
    00:00 +21°C° 0 mm 9 mps 731 mmHg 29%
    01:00 +21°C° 0 mm 10 mps 731 mmHg 32%
    02:00 +19°C° 0 mm 9 mps 731 mmHg 33%
    03:00 +18°C° 0 mm 9 mps 731 mmHg 35%
    04:00 +18°C° 0 mm 9 mps 731 mmHg 37%
    05:00 +19°C° 0 mm 9 mps 731 mmHg 34%
    06:00 +21°C° 0 mm 8 mps 731 mmHg 30%
    07:00 +23°C° 0 mm 8 mps 731 mmHg 27%
    08:00 +24°C° 0 mm 6 mps 731 mmHg 25%
    09:00 +26°C° 0 mm 5 mps 731 mmHg 23%
    10:00 +28°C° 0 mm 4 mps 731 mmHg 21%
    11:00 +29°C° 0 mm 4 mps 731 mmHg 19%
    12:00 +30°C° 0 mm 4 mps 730 mmHg 17%
    13:00 +32°C° 0 mm 4 mps 729 mmHg 15%
    14:00 +32°C° 0 mm 4 mps 729 mmHg 14%
    15:00 +32°C° 0 mm 5 mps 729 mmHg 13%
    16:00 +32°C° 0 mm 5 mps 728 mmHg 12%
    17:00 +28°C° 0 mm 4 mps 728 mmHg 14%
    18:00 +26°C° 0 mm 2 mps 728 mmHg 16%
    19:00 +23°C° 0 mm 1 mps 728 mmHg 18%
    20:00 +22°C° 0 mm 3 mps 728 mmHg 19%
    21:00 +22°C° 0 mm 5 mps 729 mmHg 19%
    22:00 +23°C° 0 mm 7 mps 729 mmHg 20%
    23:00 +22°C° 0 mm 7 mps 729 mmHg 24%

    17 December, Tuesday

    Time Temperature Precipitation Wind Pressure Humidity
    00:00 +21°C° 0 mm 8 mps 729 mmHg 28%
    01:00 +19°C° 0 mm 9 mps 729 mmHg 32%
    02:00 +18°C° 0 mm 8 mps 729 mmHg 35%
    03:00 +17°C° 0 mm 6 mps 729 mmHg 38%
    04:00 +16°C° 0 mm 5 mps 729 mmHg 42%
    05:00 +19°C° 0 mm 5 mps 729 mmHg 37%
    06:00 +21°C° 0 mm 6 mps 729 mmHg 33%
    07:00 +23°C° 0 mm 6 mps 729 mmHg 28%
    08:00 +26°C° 0 mm 7 mps 729 mmHg 27%
    09:00 +28°C° 0 mm 7 mps 729 mmHg 26%
    10:00 +31°C° 0 mm 8 mps 728 mmHg 24%
    11:00 +30°C° 0 mm 7 mps 728 mmHg 23%
    12:00 +32°C° 0 mm 7 mps 727 mmHg 22%
    13:00 +32°C° 0 mm 6 mps 726 mmHg 21%
    14:00 +33°C° 0 mm 7 mps 726 mmHg 19%
    15:00 +34°C° 0 mm 8 mps 726 mmHg 17%
    16:00 +35°C° 0 mm 8 mps 725 mmHg 15%
    17:00 +32°C° 0 mm 9 mps 725 mmHg 19%
    18:00 +29°C° 0 mm 9 mps 726 mmHg 22%
    19:00 +27°C° 0 mm 10 mps 726 mmHg 26%
    20:00 +24°C° 0 mm 10 mps 726 mmHg 31%
    21:00 +23°C° 0 mm 9 mps 726 mmHg 37%
    22:00 +21°C° 0 mm 9 mps 727 mmHg 42%
    23:00 +21°C° 0 mm 8 mps 726 mmHg 45%
    Show more